[[{"header":{"parameterUnit":"m.s-1","parameterCategory":1,"la1":30.2991,"la2":30.254,"lo1":-89.0895,"lo2":-89.0444,"dy":0.0017,"dx":0.0017,"nx":28,"ny":28,"refTime":"2024-05-17T21:00:00:Z","depth":0,"parameterNumber":2,"parameterNumberName":"U-component_of_WINDS"},"data":[0,0,0,0,0,0,0,0,0,0,0,0,0,0,0,0,0,0,0,0,0,0,0,0,0,0,0,0,0,0,0,0,0,0,0,0,0,0,0,0,0,0,0,0,0,0,0,0,0,0,0,0,0,0,0,0,0,0,-3.1835,-3.1837,0,-3.2046,-3.2048,-3.205,-3.2123,-3.2123,-3.2122,-3.2121,-3.2338,-3.2344,-3.2351,0,0,0,0,0,0,0,0,0,0,0,0,0,-3.1497,-3.1503,-3.1835,-3.1837,-3.184,-3.2045,-3.2048,-3.2051,-3.2123,-3.2122,-3.2121,-3.2121,-3.2336,-3.2344,-3.2352,0,0,0,0,0,0,0,0,0,0,0,0,0,-3.1669,-3.1505,-3.1834,-3.1901,-3.1909,-3.2045,-3.2048,-3.2052,-3.2124,-3.2122,-3.2121,-3.212,-3.2333,-3.2343,-3.2353,-3.2438,0,0,-3.2383,-3.2387,0,0,0,0,0,0,0,0,-3.166,-3.1682,-3.1888,-3.1897,-3.1906,-3.2057,-3.2009,-3.2181,-3.2124,-3.2042,-3.2121,-3.2119,-3.2246,-3.2263,-3.2305,-3.2448,-3.2457,-3.2383,-3.2389,-3.2394,-3.2396,0,0,0,0,0,0,0,-3.1648,-3.1673,-3.1918,-3.1891,-3.1902,-3.1921,-3.1944,-3.2042,-3.2148,-3.2049,-3.2055,-3.2079,-3.225,-3.2295,-3.231,-3.2461,-3.2383,-3.2392,-3.2398,-3.2402,-3.2685,-3.2687,0,0,0,0,0,0,-3.1624,-3.1663,-3.1912,-3.1925,-3.1777,-3.1928,-3.1954,-3.201,-3.2147,-3.2167,-3.208,-3.2082,-3.2279,-3.2299,-3.2318,-3.2428,-3.2394,-3.2403,-3.2408,-3.2684,-3.2686,-3.2688,0,0,0,0,0,0,-3.1617,-3.1646,-3.1903,-3.1795,-3.183,-3.1935,-3.1997,-3.2014,-3.206,-3.217,-3.219,-3.2106,-3.2279,-3.2305,-3.2408,-3.2436,-3.2407,-3.2416,-3.2682,-3.2684,-3.2687,-3.2646,0,0,0,0,0,0,-3.1607,-3.1643,-3.1675,-3.1796,-3.1835,-3.1988,-3.1999,-3.2019,-3.2076,-3.2081,-3.22,-3.2219,-3.228,-3.2393,-3.2417,-3.2449,-3.2424,-3.268,-3.2683,-3.2686,-3.2645,-3.2647,-3.2648,0,0,0,0,0,-3.1594,-3.1656,-3.1677,-3.1706,-3.1878,-3.1989,-3.2012,-3.208,-3.2078,-3.2112,-3.2184,-3.2215,-3.2429,-3.2403,-3.2431,-3.2466,-3.2678,-3.2682,-3.2686,-3.2645,-3.2646,-3.2648,0,0,0,0,0,0,-3.1537,-3.1673,-3.1697,-3.1799,-3.1882,-3.2001,-3.2047,-3.208,-3.2166,-3.2166,-3.2248,-3.2275,-3.2371,-3.243,-3.2397,-3.2557,-3.2556,-3.2565,-3.2515,-3.2517,-3.2519,-3.2502,-3.2432,0,0,0,0,0,-3.1536,-3.1614,-3.1729,-3.1808,-3.1848,-3.194,-3.1991,-3.2037,-3.2126,-3.2162,-3.2241,-3.2327,-3.2414,-3.2469,-3.2555,-3.2655,-3.2682,-3.2693,-3.2694,-3.2695,-3.2702,-3.2759,-3.2766,-3.27,-3.27,-3.27,0,0,-3.1535,-3.1619,-3.1663,-3.1798,-3.1868,-3.1948,-3.1969,-3.2053,-3.2113,-3.2175,-3.2277,-3.2338,-3.2439,-3.2541,-3.259,-3.2592,-3.2726,-3.2699,-3.2699,-3.2706,-3.2764,-3.277,-3.2775,-3.2702,-3.2702,-3.2701,0,0,-3.1573,-3.1645,-3.1718,-3.1788,-3.1893,-3.1954,-3.1971,-3.2086,-3.2129,-3.2232,-3.228,-3.2354,-3.2502,-3.2572,-3.2627,-3.2694,-3.2726,-3.272,-3.2726,-3.2781,-3.2787,-3.2792,-3.2815,-3.2823,-3.2726,-3.2726,-3.2726,0,-3.1559,-3.168,-3.1752,-3.1833,-3.1892,-3.1951,-3.2027,-3.2091,-3.2218,-3.2258,-3.2259,-3.2446,-3.2518,-3.2638,-3.2654,-3.2697,-3.272,-3.2706,-3.278,-3.2786,-3.2792,-3.2815,-3.2824,-3.2725,-3.2725,-3.2725,-3.2725,0,-3.1657,-3.1741,-3.1788,-3.1909,-3.1973,-3.2051,-3.2135,-3.2192,-3.2232,-3.2293,-3.2398,-3.2488,-3.2593,-3.2625,-3.2665,-3.275,-3.2749,-3.2764,-3.2764,-3.2795,-3.2818,-3.2828,-3.2723,-3.2723,-3.2724,-3.2724,0,0,-3.1665,-3.1825,-3.1841,-3.1897,-3.2018,-3.2084,-3.2165,-3.2268,-3.2315,-3.2401,-3.2472,-3.2596,-3.2611,-3.2673,-3.2722,-3.2771,-3.2818,-3.2781,-3.2784,-3.2784,-3.2917,-3.2904,-3.2913,-3.284,-3.2842,-3.2844,-3.2908,0,-3.1719,-3.1865,-3.1932,-3.2049,-3.2128,-3.2186,-3.2257,-3.2339,-3.2398,-3.2474,-3.2541,-3.2627,-3.264,-3.2679,-3.2729,-3.2801,-3.2845,-3.2798,-3.2907,-3.291,-3.2878,-3.2926,-3.2913,-3.2969,-3.2918,-3.292,-3.2921,0,-3.1801,-3.1887,-3.2011,-3.2123,-3.2159,-3.2221,-3.232,-3.2392,-3.2487,-3.2527,-3.2597,-3.2644,-3.2733,-3.2728,-3.2851,-3.2817,-3.2866,-3.2908,-3.2912,-3.2924,-3.2916,-3.2939,-3.2989,-3.2997,-3.2936,-3.2935,-3.2934,0,-3.1794,-3.1941,-3.2034,-3.208,-3.2213,-3.2255,-3.2313,-3.2406,-3.2464,-3.2551,-3.259,-3.2686,-3.2739,-3.2814,-3.2886,-3.2876,-3.3003,-3.3004,-3.3038,-3.3037,-3.3062,-3.3059,-3.312,-3.3094,-3.3094,-3.3094,-3.3094,0,-3.1847,-3.192,-3.2032,-3.209,-3.2174,-3.2252,-3.2333,-3.2395,-3.2478,-3.2549,-3.2606,-3.2672,-3.2764,-3.2841,-3.2899,-3.2992,-3.3016,-3.3051,-3.3065,-3.3046,-3.3041,-3.3078,-3.3076,-3.3096,-3.3096,-3.3095,-3.3095,0,-3.1852,-3.193,-3.2036,-3.2153,-3.2184,-3.2241,-3.2342,-3.24,-3.2462,-3.2552,-3.2577,-3.2676,-3.277,-3.285,-3.2974,-3.3013,-3.3109,-3.3127,-3.3077,-3.3084,-3.3115,-3.311,-3.3201,-3.3217,-3.318,-3.318,-3.318,0,-3.1881,-3.1939,-3.2062,-3.2113,-3.2169,-3.2251,-3.231,-3.2389,-3.2448,-3.2561,-3.2605,-3.2704,-3.2786,-3.2935,-3.3018,-3.3113,-3.3133,-3.3158,-3.3148,-3.3126,-3.3133,-3.3128,-3.3135,-3.3158,-3.3158,-3.3158,-3.3158,0,-3.1923,-3.1959,-3.2041,-3.2137,-3.2205,-3.2285,-3.2366,-3.2405,-3.2499,-3.2563,-3.2659,-3.2723,-3.285,-3.2947,-3.3052,-3.3112,-3.3151,-3.3161,-3.3174,-3.3154,-3.3123,-3.314,-3.3078,-3.3158,-3.3158,-3.3158,-3.3158,-3.3158,-3.1941,-3.1995,-3.209,-3.218,-3.2249,-3.2324,-3.2384,-3.2454,-3.2536,-3.2645,-3.2687,-3.2785,-3.288,-3.3024,-3.3085,-3.3164,-3.317,-3.3188,-3.3193,-3.3197,-3.3193,-3.311,-3.3183,-3.3184,-3.3184,-3.3184,-3.3184,0,-3.1986,-3.205,-3.2132,-3.2243,-3.2314,-3.2344,-3.2436,-3.2493,-3.2579,-3.2663,-3.2743,-3.2855,-3.2949,-3.304,-3.3139,-3.3185,-3.3206,-3.3209,-3.3206,-3.3219,-3.3183,-3.3161,-3.319,-3.319,-3.319,-3.319,-3.319,-3.319,-3.2018,-3.2111,-3.2158,-3.2286,-3.2351,-3.2447,-3.2497,-3.2566,-3.2634,-3.2755,-3.2834,-3.2892,-3.2979,-3.3085,-3.3174,-3.3198,-3.3232,-3.323,-3.3259,-3.3223,-3.3222,-3.322,-3.32,-3.3237,-3.3237,-3.3289,-3.3289,-3.329]},{"header":{"parameterUnit":"m.s-1","parameterCategory":1,"la1":30.2991,"la2":30.254,"lo1":-89.0895,"lo2":-89.0444,"dy":0.0017,"dx":0.0017,"nx":28,"ny":28,"refTime":"2024-05-17T21:00:00:Z","depth":0,"parameterNumber":3,"parameterNumberName":"V-component_of_WINDS"},"data":[0,0,0,0,0,0,0,0,0,0,0,0,0,0,0,0,0,0,0,0,0,0,0,0,0,0,0,0,0,0,0,0,0,0,0,0,0,0,0,0,0,0,0,0,0,0,0,0,0,0,0,0,0,0,0,0,0,0,8.1308,8.1309,0,8.1422,8.1423,8.1425,8.138,8.1377,8.1374,8.1372,8.1482,8.1488,8.1493,0,0,0,0,0,0,0,0,0,0,0,0,0,8.1045,8.105,8.1307,8.1309,8.131,8.1422,8.1423,8.1425,8.138,8.1377,8.1374,8.1371,8.1481,8.1487,8.1493,0,0,0,0,0,0,0,0,0,0,0,0,0,8.1159,8.1051,8.1307,8.1302,8.1302,8.1421,8.1423,8.1425,8.1381,8.1377,8.1373,8.1369,8.1478,8.1486,8.1494,8.1624,0,0,8.1519,8.1523,0,0,0,0,0,0,0,0,8.1152,8.1168,8.1301,8.1302,8.1303,8.1383,8.1371,8.1492,8.1382,8.1351,8.1372,8.1367,8.1452,8.1462,8.1492,8.1629,8.1634,8.152,8.1525,8.1528,8.1531,0,0,0,0,0,0,0,8.1145,8.1163,8.1352,8.1303,8.1304,8.1291,8.1303,8.1394,8.1422,8.1353,8.135,8.1365,8.1452,8.1484,8.1494,8.1635,8.152,8.1527,8.1532,8.1535,8.1885,8.1889,0,0,0,0,0,0,8.1137,8.1157,8.1349,8.1356,8.1217,8.1299,8.1313,8.1361,8.1421,8.1426,8.1368,8.1362,8.1472,8.1485,8.1498,8.1654,8.1528,8.1536,8.154,8.1881,8.1886,8.1891,0,0,0,0,0,0,8.1132,8.1155,8.1344,8.1256,8.1279,8.1308,8.1363,8.1365,8.1398,8.1432,8.1436,8.1396,8.147,8.1486,8.1594,8.1657,8.1539,8.1547,8.1875,8.1882,8.1888,8.1967,0,0,0,0,0,0,8.1124,8.1153,8.1204,8.1257,8.1284,8.144,8.1367,8.137,8.1413,8.1406,8.146,8.1465,8.1468,8.1582,8.1602,8.1666,8.1553,8.187,8.1878,8.1886,8.1959,8.1975,8.199,0,0,0,0,0,8.1115,8.122,8.1207,8.123,8.1348,8.1444,8.1459,8.1462,8.1418,8.1469,8.1491,8.1463,8.1647,8.1593,8.1615,8.1683,8.1866,8.1876,8.1886,8.1952,8.1972,8.1989,0,0,0,0,0,0,8.117,8.1226,8.1213,8.1338,8.1387,8.1436,8.15,8.1483,8.1543,8.1534,8.1533,8.1546,8.1657,8.168,8.1619,8.1812,8.175,8.1764,8.1792,8.1812,8.1827,8.1818,8.156,0,0,0,0,0,8.1197,8.1272,8.1316,8.1423,8.1448,8.147,8.1511,8.151,8.1559,8.1579,8.1609,8.1656,8.1725,8.1769,8.1834,8.1962,8.1973,8.202,8.2035,8.2048,8.206,8.213,8.2151,8.1924,8.1923,8.1923,0,0,8.1253,8.1293,8.134,8.1435,8.1472,8.1548,8.1487,8.157,8.1625,8.1591,8.1694,8.1718,8.1771,8.1889,8.1943,8.1912,8.2126,8.206,8.207,8.2076,8.2142,8.2164,8.2183,8.193,8.1929,8.1928,0,0,8.1394,8.1432,8.1525,8.1565,8.1624,8.1638,8.166,8.1713,8.1728,8.1833,8.1808,8.1874,8.1991,8.203,8.2065,8.2223,8.22,8.2244,8.2324,8.2392,8.241,8.2426,8.2482,8.2502,8.2256,8.2257,8.2257,0,8.1455,8.157,8.1574,8.166,8.1702,8.1677,8.1771,8.1808,8.1884,8.1913,8.1878,8.2027,8.206,8.2188,8.2227,8.2256,8.228,8.2237,8.2407,8.2423,8.2438,8.2491,8.2513,8.2262,8.2261,8.2261,8.226,0,8.1643,8.1723,8.1791,8.1868,8.1918,8.2007,8.2023,8.2073,8.2067,8.2085,8.2191,8.2231,8.2304,8.2334,8.2328,8.2461,8.244,8.2407,8.2344,8.2465,8.2515,8.2535,8.2269,8.2267,8.2265,8.2264,0,0,8.182,8.19,8.1925,8.196,8.2024,8.2085,8.2172,8.2246,8.2288,8.2342,8.2414,8.2516,8.2486,8.2526,8.2524,8.2584,8.2706,8.2543,8.2544,8.2572,8.2854,8.2879,8.2903,8.2692,8.2696,8.2699,8.285,0,8.1966,8.2122,8.2129,8.227,8.2344,8.2322,8.2398,8.2445,8.2464,8.2528,8.2547,8.2619,8.2575,8.2599,8.2657,8.2679,8.2763,8.2668,8.2758,8.2761,8.2745,8.2929,8.2955,8.3095,8.287,8.2873,8.2875,0,8.2156,8.2219,8.2369,8.2423,8.2454,8.2523,8.2591,8.2653,8.2705,8.2714,8.2761,8.2751,8.2839,8.2774,8.2895,8.2831,8.2868,8.2884,8.289,8.2898,8.2825,8.2941,8.314,8.3161,8.2906,8.2904,8.2901,0,8.2271,8.2392,8.2497,8.2528,8.2594,8.2642,8.2672,8.272,8.2764,8.2823,8.2852,8.292,8.2957,8.3009,8.3017,8.297,8.3138,8.3074,8.3148,8.3148,8.3183,8.3181,8.3391,8.3208,8.3208,8.3208,8.3207,0,8.2432,8.2524,8.255,8.2614,8.2717,8.2724,8.2824,8.2849,8.2893,8.2961,8.2945,8.3009,8.3017,8.3082,8.3089,8.3188,8.3205,8.3214,8.3214,8.3215,8.3214,8.3239,8.3229,8.3213,8.3212,8.3211,8.321,0,8.2577,8.2597,8.2711,8.2765,8.2781,8.2854,8.2899,8.296,8.2978,8.3065,8.3085,8.3113,8.3189,8.3203,8.3292,8.3297,8.3415,8.3406,8.3399,8.3397,8.3469,8.3462,8.3702,8.3734,8.3531,8.3533,8.3535,0,8.2678,8.2749,8.2812,8.2858,8.289,8.2964,8.301,8.3019,8.3067,8.3132,8.3185,8.3261,8.3322,8.3445,8.3471,8.3539,8.3531,8.3611,8.3541,8.354,8.3532,8.3528,8.3535,8.3624,8.3626,8.3628,8.3629,0,8.2857,8.2864,8.2932,8.3004,8.306,8.3116,8.317,8.3208,8.3224,8.3278,8.3358,8.3405,8.3498,8.3573,8.3641,8.3669,8.3652,8.3651,8.3672,8.3673,8.3666,8.367,8.3434,8.3645,8.3644,8.3642,8.3642,8.3641,8.2983,8.3045,8.31,8.3176,8.3218,8.3268,8.3329,8.3356,8.3423,8.3501,8.3502,8.3588,8.3638,8.3729,8.3762,8.3829,8.3803,8.3833,8.384,8.3847,8.3854,8.3656,8.3841,8.3841,8.384,8.384,8.3839,0,8.316,8.3195,8.3265,8.3342,8.3402,8.3383,8.3442,8.3492,8.357,8.3619,8.368,8.3771,8.3844,8.3877,8.3949,8.3996,8.399,8.4014,8.401,8.4017,8.3873,8.3848,8.4018,8.4018,8.4018,8.4018,8.4018,8.4018,8.3259,8.3364,8.3378,8.3503,8.3536,8.3623,8.3658,8.3705,8.3744,8.3848,8.3909,8.3931,8.3974,8.4049,8.4114,8.4122,8.4148,8.4177,8.4181,8.4045,8.4027,8.401,8.3987,8.4183,8.4183,8.4319,8.4321,8.4322]}]]